Location: Arrodets-la-Barthe
(43.0306°N, 0.2829°E)
Time: 17:03:29
(UTC+00:00)

STRAND 1 - Pass Details

Date: 04 April 2023
Orbit: 767 x 779 km, 98.4° (Epoch: 04 June)

Event Time Altitude Azimuth Distance (km) Brightness Sun altitude
Rises 20:10:21 0° 359° (N) 3,248 ? -18.5°
Reaches altitude 10° 20:13:15 10° 342° (NNW) 2,316 ? -19.0°
Maximum altitude 20:16:46 19° 298° (WNW) 1,755 ? -19.5°
Drops below altitude 10° 20:20:18 10° 254° (WSW) 2,306 ? -20.1°
Sets 20:23:11 0° 237° (WSW) 3,229 ? -20.6°
